• In Italy
  • List of Countries
  • For 7 days
  • Water Temperature
  • Satellite Maps
  • Weather Map
  • Weather Widgets
  • user-avatar
    Login

    Hourly Weather Perth

    Today, 11 December, Monday

    Time Temperature Precipitation Wind Pressure Humidity
    00:00 +27°C° 0 mm 3 mps 756 mmHg 50%
    01:00 +27°C° 0 mm 3 mps 756 mmHg 49%
    02:00 +27°C° 0 mm 2 mps 756 mmHg 46%
    03:00 +27°C° 0 mm 2 mps 756 mmHg 46%
    04:00 +27°C° 0 mm 2 mps 755 mmHg 45%
    05:00 +27°C° 0 mm 2 mps 755 mmHg 44%
    06:00 +29°C° 0 mm 2 mps 755 mmHg 40%
    07:00 +31°C° 0 mm 2 mps 755 mmHg 36%
    08:00 +34°C° 0 mm 2 mps 755 mmHg 31%
    09:00 +36°C° 0 mm 2 mps 755 mmHg 28%
    10:00 +38°C° 0 mm 2 mps 754 mmHg 26%
    11:00 +40°C° 0 mm 2 mps 754 mmHg 23%
    12:00 +39°C° 0 mm 3 mps 754 mmHg 25%
    13:00 +38°C° 0 mm 4 mps 753 mmHg 27%
    14:00 +37°C° 0 mm 5 mps 753 mmHg 29%
    15:00 +35°C° 0 mm 5 mps 753 mmHg 34%
    16:00 +34°C° 0 mm 5 mps 753 mmHg 38%
    17:00 +32°C° 0 mm 5 mps 753 mmHg 43%
    18:00 +30°C° 0 mm 4 mps 753 mmHg 50%
    19:00 +28°C° 0 mm 4 mps 753 mmHg 56%
    20:00 +27°C° 0 mm 3 mps 754 mmHg 63%
    21:00 +26°C° 0 mm 3 mps 754 mmHg 66%
    22:00 +26°C° 0 mm 3 mps 755 mmHg 69%
    23:00 +25°C° 0 mm 2 mps 755 mmHg 72%

    Tomorrow, 12 December, Tuesday

    Time Temperature Precipitation Wind Pressure Humidity
    00:00 +25°C° 0 mm 3 mps 755 mmHg 72%
    01:00 +25°C° 0 mm 3 mps 755 mmHg 72%
    02:00 +25°C° 0 mm 3 mps 755 mmHg 72%
    03:00 +25°C° 0.1 mm 4 mps 755 mmHg 75%
    04:00 +23°C° 0.1 mm 4 mps 755 mmHg 77%
    05:00 +23°C° 0.1 mm 4 mps 755 mmHg 80%
    06:00 +23°C° 0 mm 4 mps 756 mmHg 75%
    07:00 +25°C° 0 mm 4 mps 756 mmHg 70%
    08:00 +26°C° 0 mm 5 mps 757 mmHg 65%
    09:00 +27°C° 0 mm 5 mps 757 mmHg 61%
    10:00 +28°C° 0 mm 5 mps 757 mmHg 57%
    11:00 +28°C° 0 mm 5 mps 757 mmHg 52%
    12:00 +29°C° 0 mm 6 mps 756 mmHg 47%
    13:00 +30°C° 0 mm 6 mps 756 mmHg 41%
    14:00 +32°C° 0 mm 7 mps 756 mmHg 36%
    15:00 +30°C° 0 mm 7 mps 756 mmHg 40%
    16:00 +29°C° 0 mm 8 mps 756 mmHg 45%
    17:00 +28°C° 0 mm 8 mps 756 mmHg 49%
    18:00 +26°C° 0 mm 7 mps 756 mmHg 55%
    19:00 +24°C° 0 mm 7 mps 757 mmHg 61%
    20:00 +22°C° 0 mm 7 mps 758 mmHg 66%
    21:00 +21°C° 0 mm 6 mps 758 mmHg 67%
    22:00 +21°C° 0 mm 6 mps 759 mmHg 67%
    23:00 +20°C° 0 mm 6 mps 759 mmHg 68%

    Day after tomorrow, 13 December, Wednesday

    Time Temperature Precipitation Wind Pressure Humidity
    00:00 +20°C° 0 mm 6 mps 759 mmHg 69%
    01:00 +19°C° 0 mm 5 mps 759 mmHg 70%
    02:00 +19°C° 0 mm 5 mps 759 mmHg 71%
    03:00 +17°C° 0 mm 5 mps 759 mmHg 72%
    04:00 +16°C° 0 mm 5 mps 759 mmHg 73%
    05:00 +17°C° 0 mm 4 mps 760 mmHg 75%
    06:00 +18°C° 0 mm 4 mps 760 mmHg 67%
    07:00 +20°C° 0 mm 4 mps 761 mmHg 60%
    08:00 +21°C° 0 mm 4 mps 761 mmHg 52%
    09:00 +23°C° 0 mm 4 mps 761 mmHg 46%
    10:00 +26°C° 0 mm 4 mps 761 mmHg 40%
    11:00 +28°C° 0 mm 4 mps 761 mmHg 34%
    12:00 +29°C° 0 mm 5 mps 760 mmHg 34%
    13:00 +29°C° 0 mm 5 mps 760 mmHg 34%
    14:00 +30°C° 0 mm 6 mps 759 mmHg 34%
    15:00 +29°C° 0 mm 6 mps 759 mmHg 37%
    16:00 +28°C° 0 mm 7 mps 759 mmHg 40%
    17:00 +27°C° 0 mm 7 mps 759 mmHg 43%
    18:00 +26°C° 0 mm 7 mps 760 mmHg 47%
    19:00 +24°C° 0 mm 6 mps 760 mmHg 50%
    20:00 +22°C° 0 mm 6 mps 760 mmHg 54%
    21:00 +22°C° 0 mm 6 mps 761 mmHg 53%
    22:00 +22°C° 0 mm 6 mps 761 mmHg 53%
    23:00 +21°C° 0 mm 6 mps 761 mmHg 52%

    14 December, Thursday

    Time Temperature Precipitation Wind Pressure Humidity
    00:00 +21°C° 0 mm 6 mps 761 mmHg 54%
    01:00 +20°C° 0 mm 5 mps 761 mmHg 55%
    02:00 +20°C° 0 mm 5 mps 761 mmHg 56%
    03:00 +19°C° 0 mm 5 mps 761 mmHg 57%
    04:00 +19°C° 0 mm 5 mps 761 mmHg 59%
    05:00 +18°C° 0 mm 4 mps 761 mmHg 60%
    06:00 +20°C° 0 mm 4 mps 762 mmHg 56%
    07:00 +21°C° 0 mm 4 mps 762 mmHg 51%
    08:00 +22°C° 0 mm 4 mps 762 mmHg 46%
    09:00 +26°C° 0 mm 4 mps 762 mmHg 40%
    10:00 +28°C° 0 mm 3 mps 761 mmHg 34%
    11:00 +30°C° 0 mm 3 mps 761 mmHg 28%
    12:00 +31°C° 0 mm 3 mps 760 mmHg 27%
    13:00 +33°C° 0 mm 4 mps 760 mmHg 25%
    14:00 +34°C° 0 mm 4 mps 759 mmHg 24%
    15:00 +33°C° 0 mm 5 mps 759 mmHg 27%
    16:00 +32°C° 0 mm 6 mps 758 mmHg 30%
    17:00 +30°C° 0 mm 6 mps 758 mmHg 33%
    18:00 +28°C° 0 mm 6 mps 758 mmHg 41%
    19:00 +26°C° 0 mm 6 mps 759 mmHg 49%
    20:00 +23°C° 0 mm 6 mps 759 mmHg 57%
    21:00 +22°C° 0 mm 6 mps 759 mmHg 59%
    22:00 +22°C° 0 mm 6 mps 759 mmHg 60%
    23:00 +22°C° 0 mm 5 mps 759 mmHg 61%

    15 December, Friday

    Time Temperature Precipitation Wind Pressure Humidity
    00:00 +21°C° 0 mm 5 mps 759 mmHg 59%
    01:00 +21°C° 0 mm 5 mps 758 mmHg 58%
    02:00 +21°C° 0 mm 5 mps 758 mmHg 57%
    03:00 +21°C° 0 mm 5 mps 758 mmHg 59%
    04:00 +20°C° 0 mm 5 mps 758 mmHg 61%
    05:00 +20°C° 0 mm 5 mps 758 mmHg 63%
    06:00 +22°C° 0 mm 4 mps 758 mmHg 58%
    07:00 +23°C° 0 mm 4 mps 758 mmHg 52%
    08:00 +26°C° 0 mm 4 mps 758 mmHg 47%
    09:00 +29°C° 0 mm 4 mps 758 mmHg 39%
    10:00 +33°C° 0 mm 4 mps 757 mmHg 31%
    11:00 +36°C° 0 mm 4 mps 757 mmHg 23%
    12:00 +37°C° 0 mm 4 mps 756 mmHg 22%
    13:00 +38°C° 0 mm 4 mps 755 mmHg 21%
    14:00 +39°C° 0 mm 5 mps 754 mmHg 20%
    15:00 +39°C° 0 mm 5 mps 754 mmHg 23%
    16:00 +38°C° 0 mm 6 mps 753 mmHg 25%
    17:00 +36°C° 0 mm 6 mps 753 mmHg 27%
    18:00 +34°C° 0 mm 6 mps 753 mmHg 31%
    19:00 +32°C° 0 mm 6 mps 753 mmHg 35%
    20:00 +29°C° 0 mm 6 mps 753 mmHg 39%
    21:00 +28°C° 0 mm 6 mps 753 mmHg 39%
    22:00 +28°C° 0 mm 5 mps 753 mmHg 39%
    23:00 +27°C° 0 mm 5 mps 754 mmHg 39%

    16 December, Saturday

    Time Temperature Precipitation Wind Pressure Humidity
    00:00 +27°C° 0 mm 5 mps 753 mmHg 44%
    01:00 +26°C° 0 mm 5 mps 753 mmHg 48%
    02:00 +25°C° 0 mm 5 mps 752 mmHg 53%
    03:00 +25°C° 0 mm 5 mps 752 mmHg 55%
    04:00 +23°C° 0 mm 4 mps 752 mmHg 58%
    05:00 +22°C° 0 mm 4 mps 752 mmHg 60%
    06:00 +25°C° 0 mm 4 mps 752 mmHg 57%
    07:00 +26°C° 0 mm 4 mps 752 mmHg 53%
    08:00 +28°C° 0 mm 3 mps 753 mmHg 49%
    09:00 +29°C° 0 mm 4 mps 752 mmHg 45%
    10:00 +32°C° 0 mm 5 mps 752 mmHg 42%
    11:00 +33°C° 0 mm 6 mps 752 mmHg 38%
    12:00 +33°C° 0 mm 7 mps 752 mmHg 38%
    13:00 +33°C° 0 mm 7 mps 752 mmHg 38%
    14:00 +32°C° 0 mm 8 mps 751 mmHg 38%
    15:00 +31°C° 0 mm 9 mps 752 mmHg 40%
    16:00 +28°C° 0 mm 9 mps 752 mmHg 43%
    17:00 +27°C° 0 mm 9 mps 752 mmHg 45%
    18:00 +24°C° 0 mm 9 mps 753 mmHg 53%
    19:00 +23°C° 0 mm 8 mps 754 mmHg 62%
    20:00 +21°C° 0 mm 8 mps 754 mmHg 70%
    21:00 +21°C° 0 mm 7 mps 755 mmHg 72%
    22:00 +20°C° 0 mm 7 mps 755 mmHg 74%
    23:00 +20°C° 0 mm 6 mps 755 mmHg 76%
    Show more